User: anonymous   Login
Location: Bakov nad Jizerou
(50.4784°N, 14.9394°E)
Time: 00:45:00
(UTC+00:00)
Language:

USA 267 - Orbit

View from above orbital plane
View from above orbital plane
View from above satellite
View from above satellite

Ground track
Ground track

The orbit data is extracted from the following two-line orbital elements,

1 41334U 16010A   21245.12578465 0.00000000  00000-0  00000-0 0    08
2 41334 122.9993 178.1358 0003356 119.5026 240.4973 13.41427683    04
Epoch (UTC): 02 September 2021 03:01:07
Eccentricity: 0.0003356
inclination: 122.9993°
perigee height: 1101 km
apogee height: 1106 km
right ascension of ascending node: 178.1358°
argument of perigee: 119.5026°
revolutions per day: 13.41427683
mean anomaly at epoch: 240.4973°
orbit number at epoch: 0

The dashed part of the orbit path shows where the satellite is in the earth's shadow,  

DLR